Flag for Finland Weather past 2 weeks in Jakobstad, Finland

Now
57 °F

Passing clouds.


Feels Like: 54 °F
Forecast: 46 / 62 °F
Wind: 16 mph from Northeast

Location: Kruunupyy

Current Time: Jul 5, 2015 at 12:59:27 PM

Latest Report: Jul 5, 2015 at 12:20 PM


Visibility: N/A

Pressure: 30.15 "Hg

Humidity: 44%

Dew point: 36 °F

Location of JakobstadLocation

Historic Weather in Jakobstad — Graph

°F

Jakobstad temperature yesterday

Maximum temperature yesterday: 64 °F (at 1:20 PM)
Minimum temperature yesterday: 54 °F (at 11:20 PM)
Average temperature yesterday: 60 °F

Past Weeks' High & Low Weather Summary

 TemperatureHumidityPressure
High82 °F (Jul 3, 4:20 PM)100% (Jun 21, 2:20 AM)30.24 "Hg (Jun 21, 2:20 AM)
Low41 °F (Jun 28, 3:50 AM)32% (Jun 28, 7:20 PM)29.47 "Hg (Jun 24, 10:50 PM)
Average58 °F81%29.87 "Hg
* Reported Jun 20 11:20 AM — Jul 5 11:20 AM, Jakobstad, Weather by CustomWeather, © 2015

Note: Actual official high and low records may vary slightly from our data, if they occured in-between our weather recording intervals... More about our weather records

Advertising

Jakobstad weather history for previous 24 hours

 ConditionsComfort  
Time TempWeatherWind HumidityBarometerVisibility
11:20 AM
Sun, Jul 5
57 °FPassing clouds.12 mph48%30.15 "HgN/A
10:50 AM57 °FPassing clouds.12 mph51%30.15 "HgN/A
10:20 AM57 °FPassing clouds.13 mph51%30.15 "HgN/A
9:50 AM57 °FSunny.12 mph55%30.12 "Hg10 mi
9:20 AM57 °FSunny.13 mph63%30.12 "Hg10 mi
8:50 AM57 °FPassing clouds.10 mph63%30.12 "HgN/A
8:20 AM57 °FPassing clouds.13 mph67%30.12 "HgN/A
7:50 AM57 °FSunny.10 mph67%30.12 "Hg10 mi
7:20 AM57 °FSunny.10 mph77%30.09 "Hg10 mi
6:50 AM55 °FSunny.9 mph82%30.09 "Hg10 mi
6:20 AM54 °FPassing clouds.7 mph94%30.09 "HgN/A
5:50 AM54 °FPassing clouds.6 mph94%30.09 "HgN/A
5:20 AM52 °FSunny.5 mph94%30.09 "Hg10 mi
4:50 AM52 °FSunny.7 mph94%30.09 "Hg10 mi
4:20 AM52 °FClear.7 mph94%30.09 "Hg10 mi
3:50 AM52 °FPassing clouds.5 mph100%30.07 "HgN/A
3:20 AM52 °FClear.3 mph100%30.07 "Hg10 mi
2:50 AM52 °FClear.3 mph100%30.07 "Hg10 mi
2:20 AM52 °FClear.3 mph94%30.07 "Hg10 mi
1:50 AM52 °FClear.3 mph94%30.07 "Hg10 mi
1:20 AM52 °FClear.3 mph94%30.07 "Hg10 mi
12:50 AM52 °FClear.3 mph94%30.07 "Hg10 mi
12:20 AM52 °FSunny.3 mph100%30.07 "Hg10 mi
11:50 PM
Sat, Jul 4
54 °FSunny.5 mph94%30.07 "Hg10 mi
11:20 PM54 °FSunny.5 mph94%30.04 "Hg10 mi
10:50 PM55 °FSunny.3 mph88%30.04 "Hg10 mi
10:20 PM55 °FDrizzle. Overcast.5 mph94%30.04 "HgN/A
9:50 PM55 °FSunny.7 mph88%30.04 "Hg10 mi
9:20 PM57 °FPassing clouds.7 mph88%30.04 "HgN/A
8:50 PM59 °FPassing clouds.8 mph82%30.04 "HgN/A
8:20 PM61 °FPassing clouds.7 mph77%30.04 "HgN/A
7:50 PM63 °FPassing clouds.6 mph73%30.01 "HgN/A
7:20 PM63 °FPassing clouds.6 mph73%30.01 "HgN/A
6:50 PM63 °FPassing clouds.7 mph73%30.01 "HgN/A
6:20 PM63 °FPartly sunny.7 mph73%30.04 "HgN/A
5:50 PM61 °FScattered clouds.7 mph83%30.04 "HgN/A
5:20 PM63 °FScattered clouds.7 mph77%30.04 "HgN/A
4:50 PM61 °FPartly sunny.8 mph77%30.04 "HgN/A
4:20 PM59 °FPartly sunny.7 mph82%30.01 "HgN/A
3:50 PM59 °FBroken clouds.9 mph88%30.01 "HgN/A
3:20 PM59 °FPartly sunny.8 mph88%30.01 "HgN/A
2:50 PM61 °FBroken clouds.10 mph83%30.01 "HgN/A
2:20 PM61 °FMostly cloudy.9 mph88%30.01 "HgN/A
1:50 PM63 °FMostly cloudy.8 mph77%30.01 "HgN/A
1:20 PM64 °FBroken clouds.8 mph78%30.01 "HgN/A
12:50 PM63 °FPartly sunny.9 mph83%29.98 "HgN/A
Weather by CustomWeather, © 2015

See weather overviewHow to use our weather pages